Time,TemperatureF,DewpointF,PressureIn,WindDirection,WindDirectionDegrees,WindSpeedMPH,WindSpeedGustMPH,Humidity,HourlyPrecipIn,Conditions,Clouds,dailyrainin,SoftwareType,DateUTC
2013-01-02 07:00:00,48.2,29.9,30.13,North,8,0.0,0.0,49,0.00,,,0.00,WUHU216WMR968SP,2013-01-02 15:00:00,
2013-01-02 07:05:00,47.8,29.5,30.16,ENE,59,0.0,0.0,49,0.00,,,0.00,WUHU216WMR968SP,2013-01-02 15:05:00,
2013-01-02 07:10:00,47.7,29.4,30.16,NNE,13,0.0,0.0,49,0.00,,,0.00,WUHU216WMR968SP,2013-01-02 15:10:00,
2013-01-02 07:15:00,47.5,29.2,30.16,NNW,339,0.0,3.1,49,0.00,,,0.00,WUHU216WMR968SP,2013-01-02 15:15:00,
2013-01-02 07:20:00,47.7,29.4,30.16,North,0,0.0,3.1,49,0.00,,,0.00,WUHU216WMR968SP,2013-01-02 15:20:00,
2013-01-02 07:25:00,48.0,29.7,30.16,North,11,0.0,3.1,49,0.00,,,0.00,WUHU216WMR968SP,2013-01-02 15:25:00,
2013-01-02 07:30:00,48.4,30.1,30.16,East,96,0.0,5.8,49,0.00,,,0.00,WUHU216WMR968SP,2013-01-02 15:30:00,
2013-01-02 07:35:00,49.5,31.1,30.13,North,6,2.2,6.3,49,0.00,,,0.00,WUHU216WMR968SP,2013-01-02 15:35:00,
2013-01-02 07:40:00,50.4,31.9,30.13,East,97,4.5,6.3,49,0.00,,,0.00,WUHU216WMR968SP,2013-01-02 15:40:00,
2013-01-02 07:45:00,51.4,32.8,30.13,ENE,68,3.6,6.3,49,0.00,,,0.00,WUHU216WMR968SP,2013-01-02 15:45:00,
2013-01-02 07:50:00,52.3,33.1,30.13,ENE,58,3.6,8.3,48,0.00,,,0.00,WUHU216WMR968SP,2013-01-02 15:50:00,
2013-01-02 07:55:00,53.2,34.0,30.13,NNE,31,2.7,8.3,48,0.00,,,0.00,WUHU216WMR968SP,2013-01-02 15:55:00,
2013-01-02 08:00:00,54.0,34.7,30.13,ENE,73,3.1,6.3,48,0.00,,,0.00,WUHU216WMR968SP,2013-01-02 16:00:00,
2013-01-02 08:05:00,54.5,35.2,30.13,ENE,57,3.6,7.6,48,0.00,,,0.00,WUHU216WMR968SP,2013-01-02 16:05:00,
2013-01-02 08:10:00,55.0,35.6,30.13,East,79,3.1,7.6,48,0.00,,,0.00,WUHU216WMR968SP,2013-01-02 16:10:00,
2013-01-02 08:15:00,55.6,35.6,30.13,ESE,110,0.0,5.4,47,0.00,,,0.00,WUHU216WMR968SP,2013-01-02 16:15:00,
2013-01-02 08:20:00,55.9,35.9,30.16,ESE,113,4.0,7.6,47,0.00,,,0.00,WUHU216WMR968SP,2013-01-02 16:20:00,
2013-01-02 08:25:00,56.5,36.5,30.16,East,89,4.0,8.7,47,0.00,,,0.00,WUHU216WMR968SP,2013-01-02 16:25:00,
2013-01-02 08:30:00,56.8,36.7,30.16,ESE,105,4.9,10.1,47,0.00,,,0.00,WUHU216WMR968SP,2013-01-02 16:30:00,
2013-01-02 08:35:00,57.0,36.9,30.13,ESE,112,7.2,11.0,47,0.00,,,0.00,WUHU216WMR968SP,2013-01-02 16:35:00,
2013-01-02 08:40:00,57.4,37.3,30.13,North,10,3.6,11.0,47,0.00,,,0.00,WUHU216WMR968SP,2013-01-02 16:40:00,
2013-01-02 08:45:00,57.4,37.3,30.13,North,10,5.8,8.1,47,0.00,,,0.00,WUHU216WMR968SP,2013-01-02 16:45:00,
2013-01-02 08:50:00,57.4,37.3,30.13,NNE,22,3.6,8.1,47,0.00,,,0.00,WUHU216WMR968SP,2013-01-02 16:50:00,
2013-01-02 08:55:00,57.2,37.1,30.13,NNW,342,2.7,8.1,47,0.00,,,0.00,WUHU216WMR968SP,2013-01-02 16:55:00,
2013-01-02 09:00:00,57.4,37.3,30.13,North,7,2.7,4.9,47,0.00,,,0.00,WUHU216WMR968SP,2013-01-02 17:00:00,
2013-01-02 09:05:00,57.2,37.1,30.16,NNE,27,4.9,6.3,47,0.00,,,0.00,WUHU216WMR968SP,2013-01-02 17:05:00,
2013-01-02 09:10:00,57.2,37.1,30.16,East,93,3.6,6.3,47,0.00,,,0.00,WUHU216WMR968SP,2013-01-02 17:10:00,
2013-01-02 09:15:00,57.9,37.7,30.16,ESE,117,0.0,6.7,47,0.00,,,0.00,WUHU216WMR968SP,2013-01-02 17:15:00,
2013-01-02 09:20:00,58.5,38.3,30.16,ENE,59,0.0,6.7,47,0.00,,,0.00,WUHU216WMR968SP,2013-01-02 17:20:00,
2013-01-02 09:25:00,59.0,38.7,30.16,NE,36,0.0,6.3,47,0.00,,,0.00,WUHU216WMR968SP,2013-01-02 17:25:00,
2013-01-02 09:30:00,59.4,39.1,30.16,ENE,58,0.0,6.3,47,0.00,,,0.00,WUHU216WMR968SP,2013-01-02 17:30:00,
2013-01-02 09:35:00,59.7,39.4,30.16,WNW,290,0.0,4.9,47,0.00,,,0.00,WUHU216WMR968SP,2013-01-02 17:35:00,
2013-01-02 09:40:00,59.9,39.6,30.16,North,0,2.7,4.9,47,0.00,,,0.00,WUHU216WMR968SP,2013-01-02 17:40:00,
2013-01-02 09:45:00,59.4,39.1,30.16,NNE,15,2.2,4.9,47,0.00,,,0.00,WUHU216WMR968SP,2013-01-02 17:45:00,
2013-01-02 09:50:00,59.0,38.7,30.16,NNE,14,2.7,3.6,47,0.00,,,0.00,WUHU216WMR968SP,2013-01-02 17:50:00,
2013-01-02 09:55:00,59.0,38.7,30.16,North,0,2.2,4.0,47,0.00,,,0.00,WUHU216WMR968SP,2013-01-02 17:55:00,
2013-01-02 10:00:00,59.2,38.9,30.16,North,7,3.1,4.0,47,0.00,,,0.00,WUHU216WMR968SP,2013-01-02 18:00:00,
2013-01-02 10:05:00,59.2,38.9,30.16,North,357,0.0,4.0,47,0.00,,,0.00,WUHU216WMR968SP,2013-01-02 18:05:00,
2013-01-02 10:10:00,59.0,38.7,30.16,North,357,2.2,5.4,47,0.00,,,0.00,WUHU216WMR968SP,2013-01-02 18:10:00,
2013-01-02 10:15:00,59.2,38.9,30.16,North,353,2.2,5.4,47,0.00,,,0.00,WUHU216WMR968SP,2013-01-02 18:15:00,
2013-01-02 10:20:00,59.4,39.1,30.16,North,4,2.7,5.8,47,0.00,,,0.00,WUHU216WMR968SP,2013-01-02 18:20:00,
2013-01-02 10:25:00,59.7,39.4,30.16,North,2,3.1,5.8,47,0.00,,,0.00,WUHU216WMR968SP,2013-01-02 18:25:00,
2013-01-02 10:30:00,60.1,39.8,30.16,North,6,3.6,4.0,47,0.00,,,0.00,WUHU216WMR968SP,2013-01-02 18:30:00,
2013-01-02 10:35:00,60.3,39.9,30.16,North,9,3.6,5.4,47,0.00,,,0.00,WUHU216WMR968SP,2013-01-02 18:35:00,
2013-01-02 10:40:00,60.4,40.0,30.16,North,357,0.0,5.4,47,0.00,,,0.00,WUHU216WMR968SP,2013-01-02 18:40:00,
2013-01-02 10:45:00,60.6,40.2,30.16,North,11,3.6,4.9,47,0.00,,,0.00,WUHU216WMR968SP,2013-01-02 18:45:00,
2013-01-02 10:50:00,61.0,40.0,30.16,NNW,343,0.0,4.0,46,0.00,,,0.00,WUHU216WMR968SP,2013-01-02 18:50:00,
2013-01-02 10:55:00,61.0,40.0,30.16,NNW,332,2.2,3.6,46,0.00,,,0.00,WUHU216WMR968SP,2013-01-02 18:55:00,
2013-01-02 11:00:00,61.2,40.2,30.16,North,0,0.0,3.6,46,0.00,,,0.00,WUHU216WMR968SP,2013-01-02 19:00:00,
2013-01-02 11:05:00,61.5,40.5,30.16,North,353,0.0,3.6,46,0.00,,,0.00,WUHU216WMR968SP,2013-01-02 19:05:00,
2013-01-02 11:10:00,61.9,40.8,30.16,North,2,0.0,2.7,46,0.00,,,0.00,WUHU216WMR968SP,2013-01-02 19:10:00,
2013-01-02 11:15:00,62.2,41.1,30.16,NW,320,2.7,4.0,46,0.00,,,0.00,WUHU216WMR968SP,2013-01-02 19:15:00,
2013-01-02 11:20:00,62.6,41.5,30.16,NNW,327,0.0,4.0,46,0.00,,,0.00,WUHU216WMR968SP,2013-01-02 19:20:00,
2013-01-02 11:25:00,62.8,41.7,30.16,NNE,24,0.0,3.6,46,0.00,,,0.00,WUHU216WMR968SP,2013-01-02 19:25:00,
2013-01-02 11:30:00,63.3,42.1,30.16,NNE,20,2.7,4.0,46,0.00,,,0.00,WUHU216WMR968SP,2013-01-02 19:30:00,
2013-01-02 11:35:00,63.9,42.7,30.13,NNE,14,4.0,5.4,46,0.00,,,0.00,WUHU216WMR968SP,2013-01-02 19:35:00,
2013-01-02 11:40:00,64.2,42.9,30.13,NE,36,2.7,5.4,46,0.00,,,0.00,WUHU216WMR968SP,2013-01-02 19:40:00,
2013-01-02 11:45:00,64.4,42.5,30.13,NNE,12,2.7,5.4,45,0.00,,,0.00,WUHU216WMR968SP,2013-01-02 19:45:00,
2013-01-02 11:50:00,64.4,42.5,30.13,NNE,31,3.1,5.4,45,0.00,,,0.00,WUHU216WMR968SP,2013-01-02 19:50:00,
2013-01-02 11:55:00,64.2,42.9,30.13,NNE,17,0.0,3.6,46,0.00,,,0.00,WUHU216WMR968SP,2013-01-02 19:55:00,
2013-01-02 12:00:00,64.0,42.8,30.13,NNE,33,2.2,3.6,46,0.00,,,0.00,WUHU216WMR968SP,2013-01-02 20:00:00,
2013-01-02 12:05:00,64.2,42.9,30.13,North,353,2.7,4.0,46,0.00,,,0.00,WUHU216WMR968SP,2013-01-02 20:05:00,
2013-01-02 12:10:00,64.4,42.5,30.13,NNE,31,2.7,4.0,45,0.00,,,0.00,WUHU216WMR968SP,2013-01-02 20:10:00,
2013-01-02 12:15:00,64.4,42.5,30.13,NNW,328,0.0,6.3,45,0.00,,,0.00,WUHU216WMR968SP,2013-01-02 20:15:00,
2013-01-02 12:20:00,64.4,42.5,30.13,North,7,2.7,6.3,45,0.00,,,0.00,WUHU216WMR968SP,2013-01-02 20:20:00,
2013-01-02 12:25:00,64.2,42.9,30.13,NW,306,2.2,4.0,46,0.00,,,0.00,WUHU216WMR968SP,2013-01-02 20:25:00,
2013-01-02 12:30:00,64.2,42.9,30.13,WNW,299,4.0,5.4,46,0.00,,,0.00,WUHU216WMR968SP,2013-01-02 20:30:00,
2013-01-02 12:35:00,64.2,42.9,30.13,NNW,341,0.0,5.4,46,0.00,,,0.00,WUHU216WMR968SP,2013-01-02 20:35:00,
2013-01-02 12:40:00,64.4,42.5,30.13,North,11,2.7,4.0,45,0.00,,,0.00,WUHU216WMR968SP,2013-01-02 20:40:00,
2013-01-02 12:46:00,64.6,42.7,30.13,NW,315,2.7,4.0,45,0.00,,,0.00,WUHU216WMR968SP,2013-01-02 20:46:00,
2013-01-02 12:51:00,64.8,42.9,30.10,North,3,0.0,5.4,45,0.00,,,0.00,WUHU216WMR968SP,2013-01-02 20:51:00,
2013-01-02 12:56:00,65.1,43.2,30.10,NW,305,0.0,5.4,45,0.00,,,0.00,WUHU216WMR968SP,2013-01-02 20:56:00,
2013-01-02 13:01:00,65.1,43.2,30.10,West,272,0.0,4.9,45,0.00,,,0.00,WUHU216WMR968SP,2013-01-02 21:01:00,
2013-01-02 13:06:00,65.5,43.5,30.10,NW,307,4.9,6.3,45,0.00,,,0.00,WUHU216WMR968SP,2013-01-02 21:06:00,
2013-01-02 13:11:00,65.7,43.7,30.10,NW,323,2.2,6.3,45,0.00,,,0.00,WUHU216WMR968SP,2013-01-02 21:11:00,
2013-01-02 13:16:00,65.7,43.7,30.10,NNW,330,2.2,4.9,45,0.00,,,0.00,WUHU216WMR968SP,2013-01-02 21:16:00,
2013-01-02 13:21:00,65.8,43.8,30.10,WSW,256,5.4,6.3,45,0.00,,,0.00,WUHU216WMR968SP,2013-01-02 21:21:00,
2013-01-02 13:26:00,65.8,43.8,30.10,WSW,252,4.0,6.3,45,0.00,,,0.00,WUHU216WMR968SP,2013-01-02 21:26:00,
2013-01-02 13:31:00,65.8,43.8,30.10,WSW,252,5.8,7.6,45,0.00,,,0.00,WUHU216WMR968SP,2013-01-02 21:31:00,
2013-01-02 13:36:00,66.0,44.0,30.10,SW,222,3.6,7.6,45,0.00,,,0.00,WUHU216WMR968SP,2013-01-02 21:36:00,
2013-01-02 13:41:00,65.8,43.8,30.10,WNW,293,2.7,6.3,45,0.00,,,0.00,WUHU216WMR968SP,2013-01-02 21:41:00,
2013-01-02 13:46:00,66.0,44.0,30.10,North,350,0.0,6.3,45,0.00,,,0.00,WUHU216WMR968SP,2013-01-02 21:46:00,
2013-01-02 13:51:00,66.0,44.0,30.10,WSW,243,2.7,4.0,45,0.00,,,0.00,WUHU216WMR968SP,2013-01-02 21:51:00,
2013-01-02 13:56:00,66.0,44.0,30.10,West,260,3.6,4.9,45,0.00,,,0.00,WUHU216WMR968SP,2013-01-02 21:56:00,
2013-01-02 14:02:00,66.2,44.2,30.10,NW,307,2.7,4.9,45,0.00,,,0.00,WUHU216WMR968SP,2013-01-02 22:02:00,
2013-01-02 14:07:00,66.2,44.2,30.10,WNW,296,3.6,5.4,45,0.00,,,0.00,WUHU216WMR968SP,2013-01-02 22:07:00,
2013-01-02 14:12:00,66.4,44.4,30.10,WSW,240,0.0,5.4,45,0.00,,,0.00,WUHU216WMR968SP,2013-01-02 22:12:00,
2013-01-02 14:17:00,66.4,44.4,30.10,NNE,17,0.0,4.0,45,0.00,,,0.00,WUHU216WMR968SP,2013-01-02 22:17:00,
2013-01-02 14:22:00,66.0,44.0,30.07,WNW,284,0.0,3.1,45,0.00,,,0.00,WUHU216WMR968SP,2013-01-02 22:22:00,
2013-01-02 14:27:00,66.0,44.0,30.07,WSW,238,0.0,4.9,45,0.00,,,0.00,WUHU216WMR968SP,2013-01-02 22:27:00,
2013-01-02 14:32:00,66.2,44.2,30.07,NW,317,2.7,4.9,45,0.00,,,0.00,WUHU216WMR968SP,2013-01-02 22:32:00,
2013-01-02 14:37:00,66.2,44.2,30.10,SSW,208,2.2,4.0,45,0.00,,,0.00,WUHU216WMR968SP,2013-01-02 22:37:00,
2013-01-02 14:42:00,66.2,44.2,30.10,NW,312,3.6,4.0,45,0.00,,,0.00,WUHU216WMR968SP,2013-01-02 22:42:00,
2013-01-02 14:47:00,66.2,44.2,30.10,SW,222,0.0,4.0,45,0.00,,,0.00,WUHU216WMR968SP,2013-01-02 22:47:00,
2013-01-02 14:52:00,66.4,44.4,30.10,NNE,19,3.6,4.9,45,0.00,,,0.00,WUHU216WMR968SP,2013-01-02 22:52:00,
2013-01-02 14:57:00,66.2,44.2,30.10,North,7,3.1,4.9,45,0.00,,,0.00,WUHU216WMR968SP,2013-01-02 22:57:00,
2013-01-02 15:02:00,66.0,44.0,30.10,North,11,3.1,4.9,45,0.00,,,0.00,WUHU216WMR968SP,2013-01-02 23:02:00,
2013-01-02 15:07:00,65.8,43.8,30.10,NNW,339,3.1,4.9,45,0.00,,,0.00,WUHU216WMR968SP,2013-01-02 23:07:00,
2013-01-02 15:12:00,65.7,43.7,30.10,NNE,19,2.2,4.9,45,0.00,,,0.00,WUHU216WMR968SP,2013-01-02 23:12:00,
2013-01-02 15:17:00,65.7,43.7,30.10,North,8,2.7,4.9,45,0.00,,,0.00,WUHU216WMR968SP,2013-01-02 23:17:00,
2013-01-02 15:22:00,65.5,43.5,30.10,North,357,2.7,4.9,45,0.00,,,0.00,WUHU216WMR968SP,2013-01-02 23:22:00,
2013-01-02 15:27:00,65.5,43.5,30.10,North,0,2.2,4.0,45,0.00,,,0.00,WUHU216WMR968SP,2013-01-02 23:27:00,
2013-01-02 15:32:00,65.1,43.2,30.10,North,353,2.2,4.0,45,0.00,,,0.00,WUHU216WMR968SP,2013-01-02 23:32:00,
2013-01-02 15:37:00,65.1,43.2,30.10,North,357,2.2,4.0,45,0.00,,,0.00,WUHU216WMR968SP,2013-01-02 23:37:00,
2013-01-02 15:42:00,64.9,43.0,30.10,North,0,2.2,3.6,45,0.00,,,0.00,WUHU216WMR968SP,2013-01-02 23:42:00,
2013-01-02 15:47:00,64.8,42.9,30.10,NNW,343,2.2,4.0,45,0.00,,,0.00,WUHU216WMR968SP,2013-01-02 23:47:00,
2013-01-02 15:52:00,64.8,42.9,30.10,North,357,0.0,4.0,45,0.00,,,0.00,WUHU216WMR968SP,2013-01-02 23:52:00,
2013-01-02 15:57:00,64.6,42.7,30.10,North,357,0.0,3.6,45,0.00,,,0.00,WUHU216WMR968SP,2013-01-02 23:57:00,
2013-01-02 16:02:00,64.4,42.5,30.10,NNW,346,0.0,4.0,45,0.00,,,0.00,WUHU216WMR968SP,2013-01-03 00:02:00,
2013-01-02 16:07:00,64.2,42.9,30.07,North,353,2.2,4.0,46,0.00,,,0.00,WUHU216WMR968SP,2013-01-03 00:07:00,
2013-01-02 16:12:00,64.2,42.9,30.07,North,6,0.0,3.6,46,0.00,,,0.00,WUHU216WMR968SP,2013-01-03 00:12:00,
2013-01-02 16:17:00,64.0,42.8,30.07,North,1,0.0,3.1,46,0.00,,,0.00,WUHU216WMR968SP,2013-01-03 00:17:00,
2013-01-02 16:22:00,63.7,42.5,30.10,North,1,0.0,2.7,46,0.00,,,0.00,WUHU216WMR968SP,2013-01-03 00:22:00,
2013-01-02 16:27:00,63.3,42.1,30.10,North,357,0.0,2.7,46,0.00,,,0.00,WUHU216WMR968SP,2013-01-03 00:27:00,
2013-01-02 16:32:00,63.0,41.8,30.10,North,0,0.0,2.7,46,0.00,,,0.00,WUHU216WMR968SP,2013-01-03 00:32:00,
2013-01-02 16:37:00,62.6,41.5,30.10,North,0,0.0,2.7,46,0.00,,,0.00,WUHU216WMR968SP,2013-01-03 00:37:00,
2013-01-02 16:42:00,61.9,40.8,30.10,North,0,0.0,2.2,46,0.00,,,0.00,WUHU216WMR968SP,2013-01-03 00:42:00,
2013-01-02 16:47:00,61.5,40.5,30.10,North,0,0.0,0.0,46,0.00,,,0.00,WUHU216WMR968SP,2013-01-03 00:47:00,
2013-01-02 16:52:00,60.8,39.8,30.10,North,357,0.0,0.0,46,0.00,,,0.00,WUHU216WMR968SP,2013-01-03 00:52:00,
2013-01-02 16:57:00,60.1,39.8,30.10,North,0,0.0,0.0,47,0.00,,,0.00,WUHU216WMR968SP,2013-01-03 00:57:00,
2013-01-02 17:02:00,59.0,38.7,30.10,North,353,0.0,2.7,47,0.00,,,0.00,WUHU216WMR968SP,2013-01-03 01:02:00,
2013-01-02 17:07:00,58.3,38.1,30.10,North,353,0.0,2.7,47,0.00,,,0.00,WUHU216WMR968SP,2013-01-03 01:07:00,
2013-01-02 17:12:00,57.7,37.6,30.10,North,353,0.0,0.0,47,0.00,,,0.00,WUHU216WMR968SP,2013-01-03 01:12:00,
2013-01-02 17:17:00,57.2,37.1,30.10,North,353,0.0,0.0,47,0.00,,,0.00,WUHU216WMR968SP,2013-01-03 01:17:00,
2013-01-02 17:22:00,56.8,36.7,30.10,North,353,0.0,0.0,47,0.00,,,0.00,WUHU216WMR968SP,2013-01-03 01:22:00,
2013-01-02 17:27:00,56.5,36.5,30.10,North,353,2.2,3.1,47,0.00,,,0.00,WUHU216WMR968SP,2013-01-03 01:27:00,
2013-01-02 17:32:00,56.3,36.3,30.10,North,353,0.0,3.1,47,0.00,,,0.00,WUHU216WMR968SP,2013-01-03 01:32:00,
2013-01-02 17:37:00,55.9,35.9,30.10,North,353,0.0,2.7,47,0.00,,,0.00,WUHU216WMR968SP,2013-01-03 01:37:00,
2013-01-02 17:42:00,55.4,35.4,30.10,North,353,0.0,0.0,47,0.00,,,0.00,WUHU216WMR968SP,2013-01-03 01:42:00,
2013-01-02 17:47:00,55.0,35.6,30.10,North,353,0.0,0.0,48,0.00,,,0.00,WUHU216WMR968SP,2013-01-03 01:47:00,
2013-01-02 17:52:00,54.9,35.5,30.10,North,353,0.0,0.0,48,0.00,,,0.00,WUHU216WMR968SP,2013-01-03 01:52:00,
2013-01-02 17:57:00,54.5,35.2,30.10,North,353,0.0,0.0,48,0.00,,,0.00,WUHU216WMR968SP,2013-01-03 01:57:00,
2013-01-02 18:02:00,54.5,35.2,30.10,North,353,0.0,0.0,48,0.00,,,0.00,WUHU216WMR968SP,2013-01-03 02:02:00,
2013-01-02 18:07:00,54.3,35.0,30.10,North,5,0.0,3.1,48,0.00,,,0.00,WUHU216WMR968SP,2013-01-03 02:07:00,
2013-01-02 18:12:00,54.3,35.0,30.10,North,1,0.0,3.1,48,0.00,,,0.00,WUHU216WMR968SP,2013-01-03 02:12:00,
2013-01-02 18:17:00,54.3,35.0,30.10,North,3,0.0,3.1,48,0.00,,,0.00,WUHU216WMR968SP,2013-01-03 02:17:00,
2013-01-02 18:22:00,54.3,35.0,30.10,North,3,0.0,0.0,48,0.00,,,0.00,WUHU216WMR968SP,2013-01-03 02:22:00,
2013-01-02 18:27:00,53.6,34.3,30.10,North,3,0.0,0.0,48,0.00,,,0.00,WUHU216WMR968SP,2013-01-03 02:27:00,
2013-01-02 18:32:00,52.9,33.7,30.10,North,353,0.0,0.0,48,0.00,,,0.00,WUHU216WMR968SP,2013-01-03 02:32:00,
2013-01-02 18:37:00,52.3,33.1,30.10,North,353,0.0,0.0,48,0.00,,,0.00,WUHU216WMR968SP,2013-01-03 02:37:00,
2013-01-02 18:42:00,52.2,33.0,30.10,North,357,0.0,2.7,48,0.00,,,0.00,WUHU216WMR968SP,2013-01-03 02:42:00,
2013-01-02 18:47:00,52.3,33.1,30.10,North,1,0.0,3.1,48,0.00,,,0.00,WUHU216WMR968SP,2013-01-03 02:47:00,
2013-01-02 18:52:00,52.7,33.5,30.10,NNE,12,0.0,4.0,48,0.00,,,0.00,WUHU216WMR968SP,2013-01-03 02:52:00,
2013-01-02 18:57:00,52.9,33.7,30.10,NNE,12,0.0,4.0,48,0.00,,,0.00,WUHU216WMR968SP,2013-01-03 02:57:00,
2013-01-02 19:02:00,52.7,33.5,30.10,NNE,12,0.0,0.0,48,0.00,,,0.00,WUHU216WMR968SP,2013-01-03 03:02:00,
2013-01-02 19:07:00,52.3,33.1,30.10,NNE,12,0.0,0.0,48,0.00,,,0.00,WUHU216WMR968SP,2013-01-03 03:07:00,
2013-01-02 19:12:00,52.0,32.9,30.10,NNE,12,0.0,0.0,48,0.00,,,0.00,WUHU216WMR968SP,2013-01-03 03:12:00,
2013-01-02 19:17:00,51.4,32.8,30.10,NNE,12,0.0,0.0,49,0.00,,,0.00,WUHU216WMR968SP,2013-01-03 03:17:00,
2013-01-02 19:22:00,51.1,32.6,30.10,NNE,12,0.0,0.0,49,0.00,,,0.00,WUHU216WMR968SP,2013-01-03 03:22:00,
2013-01-02 19:27:00,50.9,32.4,30.10,NNE,13,2.7,3.6,49,0.00,,,0.00,WUHU216WMR968SP,2013-01-03 03:27:00,
2013-01-02 19:32:00,51.6,33.0,30.10,NNE,13,0.0,3.6,49,0.00,,,0.00,WUHU216WMR968SP,2013-01-03 03:32:00,
2013-01-02 19:39:00,52.0,32.9,30.10,North,8,2.2,3.6,48,0.00,,,0.00,WUHU216WMR968SP,2013-01-03 03:39:00,
2013-01-02 19:44:00,52.3,33.1,30.10,NNE,13,2.2,4.0,48,0.00,,,0.00,WUHU216WMR968SP,2013-01-03 03:44:00,
2013-01-02 19:49:00,52.5,33.3,30.10,NNE,20,2.7,4.0,48,0.00,,,0.00,WUHU216WMR968SP,2013-01-03 03:49:00,
2013-01-02 19:54:00,53.1,33.9,30.10,NNE,12,3.1,4.9,48,0.00,,,0.00,WUHU216WMR968SP,2013-01-03 03:54:00,
2013-01-02 19:59:00,53.2,34.0,30.10,North,357,2.7,4.9,48,0.00,,,0.00,WUHU216WMR968SP,2013-01-03 03:59:00,
2013-01-02 20:04:00,53.4,34.1,30.10,North,353,2.2,4.0,48,0.00,,,0.00,WUHU216WMR968SP,2013-01-03 04:04:00,
2013-01-02 20:09:00,53.4,34.1,30.10,North,353,3.1,4.0,48,0.00,,,0.00,WUHU216WMR968SP,2013-01-03 04:09:00,
2013-01-02 20:14:00,53.4,34.1,30.10,NNE,13,2.7,4.0,48,0.00,,,0.00,WUHU216WMR968SP,2013-01-03 04:14:00,
2013-01-02 20:19:00,53.6,34.3,30.10,North,0,2.2,4.0,48,0.00,,,0.00,WUHU216WMR968SP,2013-01-03 04:19:00,
2013-01-02 20:24:00,54.0,34.7,30.10,North,8,2.2,4.0,48,0.00,,,0.00,WUHU216WMR968SP,2013-01-03 04:24:00,
2013-01-02 20:29:00,54.0,34.7,30.10,NNE,21,4.0,4.0,48,0.00,,,0.00,WUHU216WMR968SP,2013-01-03 04:29:00,
2013-01-02 20:34:00,54.0,34.7,30.10,NNE,16,2.7,5.4,48,0.00,,,0.00,WUHU216WMR968SP,2013-01-03 04:34:00,
2013-01-02 20:39:00,54.0,34.7,30.10,NNE,16,0.0,5.4,48,0.00,,,0.00,WUHU216WMR968SP,2013-01-03 04:39:00,
2013-01-02 20:44:00,54.0,34.7,30.10,NNE,16,0.0,3.6,48,0.00,,,0.00,WUHU216WMR968SP,2013-01-03 04:44:00,
2013-01-02 20:49:00,53.8,34.5,30.10,NNE,16,0.0,2.7,48,0.00,,,0.00,WUHU216WMR968SP,2013-01-03 04:49:00,
2013-01-02 20:54:00,53.4,34.1,30.10,North,357,0.0,2.7,48,0.00,,,0.00,WUHU216WMR968SP,2013-01-03 04:54:00,
2013-01-02 20:59:00,53.6,34.3,30.10,North,357,3.6,5.4,48,0.00,,,0.00,WUHU216WMR968SP,2013-01-03 04:59:00,
2013-01-02 21:04:00,53.8,34.5,30.10,NNE,17,3.1,5.4,48,0.00,,,0.00,WUHU216WMR968SP,2013-01-03 05:04:00,
2013-01-02 21:09:00,54.0,34.7,30.10,NNE,16,0.0,4.9,48,0.00,,,0.00,WUHU216WMR968SP,2013-01-03 05:09:00,
2013-01-02 21:14:00,54.0,34.7,30.10,North,11,0.0,4.0,48,0.00,,,0.00,WUHU216WMR968SP,2013-01-03 05:14:00,
2013-01-02 21:19:00,54.0,34.7,30.10,NNE,12,0.0,3.1,48,0.00,,,0.00,WUHU216WMR968SP,2013-01-03 05:19:00,
2013-01-02 21:24:00,53.8,34.5,30.10,NNE,12,0.0,3.1,48,0.00,,,0.00,WUHU216WMR968SP,2013-01-03 05:24:00,
2013-01-02 21:29:00,53.6,34.3,30.10,NNE,16,3.6,4.0,48,0.00,,,0.00,WUHU216WMR968SP,2013-01-03 05:29:00,
2013-01-02 21:34:00,53.4,34.1,30.13,NNE,16,2.2,4.0,48,0.00,,,0.00,WUHU216WMR968SP,2013-01-03 05:34:00,
2013-01-02 21:39:00,53.6,34.3,30.13,NNE,21,3.6,5.8,48,0.00,,,0.00,WUHU216WMR968SP,2013-01-03 05:39:00,
2013-01-02 21:44:00,53.6,34.3,30.13,NNE,21,2.2,5.8,48,0.00,,,0.00,WUHU216WMR968SP,2013-01-03 05:44:00,
2013-01-02 21:49:00,53.4,34.1,30.13,NNE,18,2.2,4.5,48,0.00,,,0.00,WUHU216WMR968SP,2013-01-03 05:49:00,
2013-01-02 21:54:00,53.6,34.3,30.13,NNE,22,3.1,4.9,48,0.00,,,0.00,WUHU216WMR968SP,2013-01-03 05:54:00,
2013-01-02 21:59:00,53.6,34.3,30.13,NNE,22,4.9,6.3,48,0.00,,,0.00,WUHU216WMR968SP,2013-01-03 05:59:00,
2013-01-02 22:04:00,53.6,34.3,30.13,NNE,16,2.7,6.3,48,0.00,,,0.00,WUHU216WMR968SP,2013-01-03 06:04:00,
2013-01-02 22:09:00,53.6,34.3,30.13,NNE,19,3.6,5.8,48,0.00,,,0.00,WUHU216WMR968SP,2013-01-03 06:09:00,
2013-01-02 22:14:00,53.6,34.3,30.13,North,3,0.0,5.8,48,0.00,,,0.00,WUHU216WMR968SP,2013-01-03 06:14:00,
2013-01-02 22:19:00,53.4,34.1,30.13,NNE,17,2.2,4.0,48,0.00,,,0.00,WUHU216WMR968SP,2013-01-03 06:19:00,
2013-01-02 22:24:00,53.4,34.1,30.13,NNE,17,3.6,4.0,48,0.00,,,0.00,WUHU216WMR968SP,2013-01-03 06:24:00,
2013-01-02 22:29:00,53.4,34.1,30.13,NNE,17,3.1,4.0,48,0.00,,,0.00,WUHU216WMR968SP,2013-01-03 06:29:00,
2013-01-02 22:34:00,53.2,34.0,30.13,NNE,17,0.0,4.0,48,0.00,,,0.00,WUHU216WMR968SP,2013-01-03 06:34:00,
2013-01-02 22:39:00,52.9,33.7,30.13,NNE,17,0.0,3.6,48,0.00,,,0.00,WUHU216WMR968SP,2013-01-03 06:39:00,
2013-01-02 22:44:00,52.7,33.5,30.13,NNE,17,0.0,3.1,48,0.00,,,0.00,WUHU216WMR968SP,2013-01-03 06:44:00,
2013-01-02 22:49:00,52.9,33.7,30.13,NNE,17,0.0,3.1,48,0.00,,,0.00,WUHU216WMR968SP,2013-01-03 06:49:00,
2013-01-02 22:54:00,52.7,33.5,30.13,NNE,17,0.0,0.0,48,0.00,,,0.00,WUHU216WMR968SP,2013-01-03 06:54:00,
2013-01-02 22:59:00,52.7,33.5,30.13,NNE,17,2.7,3.1,48,0.00,,,0.00,WUHU216WMR968SP,2013-01-03 06:59:00,
2013-01-02 23:05:00,52.7,33.5,30.13,NNE,17,0.0,3.1,48,0.00,,,0.00,WUHU216WMR968SP,2013-01-03 07:05:00,
2013-01-02 23:10:00,52.2,33.0,30.13,NNE,17,0.0,2.7,48,0.00,,,0.00,WUHU216WMR968SP,2013-01-03 07:10:00,
2013-01-02 23:15:00,51.1,32.6,30.13,NNE,17,0.0,0.0,49,0.00,,,0.00,WUHU216WMR968SP,2013-01-03 07:15:00,
2013-01-02 23:20:00,50.4,31.9,30.13,NNE,13,0.0,0.0,49,0.00,,,0.00,WUHU216WMR968SP,2013-01-03 07:20:00,
2013-01-02 23:25:00,49.5,31.1,30.13,NW,324,0.0,3.1,49,0.00,,,0.00,WUHU216WMR968SP,2013-01-03 07:25:00,
2013-01-02 23:30:00,49.1,30.7,30.13,North,3,0.0,3.1,49,0.00,,,0.00,WUHU216WMR968SP,2013-01-03 07:30:00,
2013-01-02 23:35:00,49.1,30.7,30.13,North,3,0.0,0.0,49,0.00,,,0.00,WUHU216WMR968SP,2013-01-03 07:35:00,
2013-01-02 23:40:00,49.3,30.9,30.13,North,3,0.0,0.0,49,0.00,,,0.00,WUHU216WMR968SP,2013-01-03 07:40:00,
2013-01-02 23:45:00,49.3,30.9,30.13,North,3,0.0,0.0,49,0.00,,,0.00,WUHU216WMR968SP,2013-01-03 07:45:00,
2013-01-02 23:50:00,49.3,30.9,30.16,North,3,0.0,0.0,49,0.00,,,0.00,WUHU216WMR968SP,2013-01-03 07:50:00,
2013-01-02 23:55:00,49.5,31.1,30.16,North,3,0.0,0.0,49,0.00,,,0.00,WUHU216WMR968SP,2013-01-03 07:55:00,